Retour au catalogue

STARLINK-30873

ActifCommunicationsVLEO
NORAD 58249·PAYLOAD·🇺🇸 United States

Lancé Nov 8, 2023 depuis Cape Canaveral Space Force Station

Loading…

Prochains Passages (prochaines 24 heures)

TLE

FraisSource: CelesTrak SupGP

Époque: Sep 15, 2026, 02:51 UTC

1 58249C 23171V   26258.11923611  .00020017  00000+0  72480-3 0  2580
2 58249  43.0024 295.4101 0001832 271.4239 160.2016 15.27578459    17

Suivez STARLINK-30873 en temps réel avec AllMySat

Download on the App Store